Погода в Галановом

Россия / Удмуртская Республика     56°09′17″N   54°06′13″E
темп.,
°C
ветер,
м/с
пор.,
м/с
влажн.,
%
обл.,
%
осадки,
мм/ч
давл.,
гПа
погр.,
м
12 апреля, пн
пн1201:00+5ссз2599100 1.4 1033151
04:00+5с2695100 2.1 1035190
07:00+4с2691100 0.7 1036157
10:00+7св3677100 0.7 1038305
13:00+11св356583 0.0 1038703
16:00+12всв3465100 0.0 1039931
19:00+9всв2385100 0.0 103937
22:00+6в2391100 0.0 104044
13 апреля, вт
вт1301:00+5в2692100 0.0 1040109
04:00+3в348979 0.0 104074
07:00+4в258885 0.0 1040134
10:00+9юв3471100 0.0 1039325
13:00+13ююв345620 0.0 1037631
16:00+14ю346091 0.0 1036702
19:00+12ю228063 0.0 103412
22:00+10ю338667 0.0 103444
14 апреля, ср
ср1401:00+9ююз338459 0.0 103333
04:00+8ююз338453 0.0 103324
07:00+8ююз238148 0.0 103359
10:00+13ююз336386 0.0 1032383
13:00+16ю345416 0.0 1031839
16:00+17ю34525 0.0 1029963
19:00+14ю226425 0.0 102812
22:00+11ю227659 0.0 102821
15 апреля, чт
чт1501:00+9ю226671 0.0 102717
04:00+8ю22765 0.0 102617
07:00+8ю24765 0.0 1025107
10:00+13ююз45515 0.0 1024451
13:00+16юз464228 0.0 10231049
16:00+17юз46400 0.0 10211406
19:00+14зюз22550 0.0 102016
22:00+11з22630 0.0 101910
16 апреля, пт
пт1601:00+10зюз11678 0.0 101810
04:00+8з11730 0.0 101810
07:00+9зсз127328 0.0 101721
10:00+13ссз346675 0.0 1017545
13:00+9ссв4682100 0.0 1018488
16:00+6ссв7981100 0.0 1020624
19:00+4ссв5127865 0.1 1021763
22:00+3с512580 0.1 1022513